"TOA5","MOW","CPU:UNC_MeetingWaters","DataHourly"
"TIMESTAMP","SondeTempC","SpCond","DOSat","DOmg","pH","Turb","BattVolt_Min"
"TS","","","","","","",""
"","Smp","Smp","Smp","Smp","Smp","Smp","Min"
"2003-10-01 00:00:00",15.5100002289,0.319000005722,92.5999984741,9.22999954224,7.65000009537,3.29999995232,12.4799995422
"2003-10-01 01:00:00",15.3000001907,0.321999996901,92.4000015259,9.23999977112,7.65000009537,3.70000004768,12.4499998093
"2003-10-01 02:00:00",15.0900001526,0.321999996901,92.3000030518,9.27999973297,7.65999984741,3.40000009537,12.4300003052
"2003-10-01 03:00:00",14.8400001526,0.321000009775,93.3000030518,9.43000030518,7.65999984741,3.40000009537,12.4200000763
"2003-10-01 04:00:00",14.7100000381,0.324000000954,92.3000030518,9.35999965668,7.63999986649,3.0,12.3900003433
"2003-10-01 05:00:00",14.5,0.330000013113,93.5999984741,9.52999973297,7.65000009537,2.90000009537,12.3599996567
"2003-10-01 06:00:00",14.4099998474,0.340999990702,92.5999984741,9.44999980927,7.61999988556,3.09999990463,12.3299999237
"2003-10-01 07:00:00",14.4300003052,0.358000010252,94.0999984741,9.60000038147,7.67000007629,4.90000009537,12.3000001907
"2003-10-01 08:00:00",14.5500001907,0.407999992371,92.5,9.39999961853,7.69999980927,4.5,12.279999733
"2003-10-01 09:00:00",14.4799995422,0.395000010729,92.0999984741,9.38000011444,7.67999982834,4.59999990463,12.279999733
"2003-10-01 10:00:00",14.8400001526,0.344000011683,94.3000030518,9.53999996185,7.69000005722,3.59999990463,12.4499998093
"2003-10-01 11:00:00",15.1400003433,0.321000009775,95.8000030518,9.61999988556,7.67999982834,3.40000009537,12.5900001526
"2003-10-01 12:00:00",15.470000267,0.310000002384,97.0,9.67000007629,7.67000007629,3.40000009537,13.0699996948
"2003-10-01 13:00:00",16.2399997711,0.316000014544,104.599998474,10.2600002289,7.65000009537,2.90000009537,13.3199996948
"2003-10-01 14:00:00",16.5200004578,0.31099998951,98.8000030518,9.63000011444,7.67000007629,2.79999995232,13.3000001907
"2003-10-01 15:00:00",16.9699993134,0.312999993563,100.0,9.65999984741,7.69000005722,2.79999995232,13.2700004578
"2003-10-01 16:00:00",17.0300006866,0.314999997616,103.0,9.93999958038,7.67999982834,2.90000009537,12.8100004196
"2003-10-01 17:00:00",16.9699993134,0.321000009775,97.1999969482,9.39000034332,7.69999980927,2.79999995232,12.6800003052
"2003-10-01 18:00:00",16.9899997711,0.321999996901,95.8000030518,9.26000022888,7.71000003815,3.40000009537,12.6199998856
"2003-10-01 19:00:00",16.9200000763,0.323000013828,94.0,9.09000015259,7.71000003815,4.30000019073,12.6000003815
"2003-10-01 20:00:00",16.8199996948,0.323000013828,89.5999984741,8.68000030518,7.67999982834,10.0,12.5699996948
"2003-10-01 21:00:00",16.7299995422,0.324000000954,91.0999984741,8.85000038147,7.65000009537,19.7000007629,12.5600004196
"2003-10-01 22:00:00",16.6499996185,0.324999988079,92.5999984741,9.0,7.63999986649,22.3999996185,12.5399999619
"2003-10-01 23:00:00",16.4799995422,0.324999988079,91.3000030518,8.90999984741,7.63999986649,20.2999992371,12.529999733
"2003-10-02 00:00:00",16.2299995422,0.324000000954,91.6999969482,9.0,7.63999986649,16.5,12.5200004578
"2003-10-02 01:00:00",16.0900001526,0.323000013828,91.0999984741,8.97000026703,7.65000009537,12.8000001907,12.4899997711
"2003-10-02 02:00:00",15.7700004578,0.324000000954,90.9000015259,9.01000022888,7.63999986649,10.1000003815,12.470000267
"2003-10-02 03:00:00",15.4399995804,0.326000005007,91.6999969482,9.14999961853,7.63000011444,8.30000019073,12.4499998093
"2003-10-02 04:00:00",15.2899999619,0.331000000238,90.0999984741,9.02000045776,7.61999988556,7.09999990463,12.4300003052
"2003-10-02 05:00:00",15.0900001526,0.33599999547,90.3000030518,9.07999992371,7.61000013351,5.90000009537,12.4200000763
"2003-10-02 06:00:00",14.8900003433,0.338999986649,90.0,9.09000015259,7.61000013351,5.59999990463,12.3800001144
"2003-10-02 07:00:00",14.8699998856,0.340999990702,92.6999969482,9.35999965668,7.61000013351,5.30000019073,12.3599996567
"2003-10-02 08:00:00",14.7700004578,0.347000002861,90.8000030518,9.18999958038,7.61000013351,5.59999990463,12.3199996948
"2003-10-02 09:00:00",14.6999998093,0.352999985218,95.1999969482,9.64999961853,7.63000011444,5.40000009537,12.4600000381
"2003-10-02 10:00:00",14.6999998093,0.360000014305,96.5999984741,9.78999996185,7.63000011444,4.40000009537,13.1599998474
"2003-10-02 11:00:00",15.1400003433,0.368000000715,100.800003052,10.1199998856,7.67999982834,4.0,13.3199996948
"2003-10-02 12:00:00",15.3100004196,0.356999993324,99.5,9.96000003815,7.71000003815,3.70000004768,12.7700004578
"2003-10-02 13:00:00",16.0699996948,0.337999999523,112.5,11.0799999237,7.73999977112,3.79999995232,13.3199996948
"2003-10-02 14:00:00",16.1299991608,0.321000009775,104.099998474,10.2399997711,7.71999979019,3.5,13.3000001907
"2003-10-02 15:00:00",16.6200008392,0.312000006437,104.900001526,10.2100000381,7.73999977112,3.70000004768,13.279999733
"2003-10-02 16:00:00",16.25,0.308999985456,98.6999969482,9.68000030518,7.76000022888,3.90000009537,12.7100000381
"2003-10-02 17:00:00",16.0300006866,0.312000006437,96.9000015259,9.55000019073,7.73000001907,3.79999995232,12.6199998856
"2003-10-02 18:00:00",15.8000001907,0.340999990702,94.9000015259,9.39999961853,7.69999980927,3.70000004768,12.5900001526
"2003-10-02 19:00:00",15.6300001144,0.446999996901,94.5,9.39000034332,7.71000003815,5.40000009537,12.5699996948
"2003-10-02 20:00:00",15.4099998474,0.565999984741,93.3000030518,9.31000041962,7.71000003815,3.29999995232,12.5399999619
"2003-10-02 21:00:00",15.0699996948,0.65600001812,92.0,9.25,7.73000001907,2.90000009537,12.5200004578
"2003-10-02 22:00:00",14.7299995422,0.712999999523,92.0999984741,9.32999992371,7.73000001907,2.79999995232,12.4899997711
"2003-10-02 23:00:00",14.4300003052,0.661000013351,92.8000030518,9.44999980927,7.75,3.0,12.470000267
"2003-10-03 00:00:00",14.1300001144,0.600000023842,91.1999969482,9.35999965668,7.73000001907,3.09999990463,12.4499998093
"2003-10-03 01:00:00",13.8299999237,0.544000029564,90.8000030518,9.38000011444,7.71999979019,3.70000004768,12.4300003052
"2003-10-03 02:00:00",13.5,0.49200001359,89.1999969482,9.27999973297,7.71000003815,4.09999990463,12.4099998474
"2003-10-03 03:00:00",13.1899995804,0.456999987364,91.6999969482,9.60000038147,7.71999979019,5.30000019073,12.3800001144
"2003-10-03 04:00:00",12.8800001144,0.430999994278,90.6999969482,9.56999969482,7.71000003815,11.3000001907,12.3500003815
"2003-10-03 05:00:00",12.5699996948,0.425000011921,91.0,9.67000007629,7.69999980927,13.6000003815,12.3299999237
"2003-10-03 06:00:00",12.2899999619,0.430000007153,90.5,9.67000007629,7.69999980927,14.6000003815,12.2899999619
"2003-10-03 07:00:00",11.970000267,0.43900001049,92.5,9.96000003815,7.71999979019,12.6999998093,12.25
"2003-10-03 08:00:00",11.5699996948,0.433999985456,90.6999969482,9.85999965668,7.71000003815,10.6999998093,12.220000267
"2003-10-03 09:00:00",11.6300001144,0.42199999094,90.8000030518,9.85999965668,7.71000003815,9.19999980927,12.2399997711
"2003-10-03 10:00:00",11.9499998093,0.409999996424,95.0,10.2399997711,7.71000003815,7.80000019073,13.2600002289
"2003-10-03 11:00:00",12.7600002289,0.405999988317,102.900001526,10.8800001144,7.75,6.80000019073,13.4200000763
"2003-10-03 12:00:00",12.8400001526,0.395000010729,99.5,10.5100002289,7.73999977112,6.0,12.8100004196
"2003-10-03 13:00:00",13.75,0.393000006676,110.900001526,11.4799995422,7.78999996185,5.09999990463,13.3999996185
"2003-10-03 14:00:00",13.779999733,0.379999995232,101.699996948,10.5200004578,7.80000019073,4.40000009537,13.3699998856
"2003-10-03 15:00:00",14.5,0.372000008821,106.699996948,10.8699998856,7.84000015259,4.0,13.3400001526
"2003-10-03 16:00:00",14.3299999237,0.361000001431,103.0,10.529999733,7.82000017166,3.70000004768,12.7399997711
"2003-10-03 17:00:00",14.3400001526,0.354000002146,99.1999969482,10.1400003433,7.80000019073,3.5,12.6700000763
"2003-10-03 18:00:00",14.2399997711,0.347000002861,96.0999984741,9.84000015259,7.76999998093,3.29999995232,12.6199998856
"2003-10-03 19:00:00",14.1499996185,0.342000007629,94.9000015259,9.73999977112,7.75,3.09999990463,12.6000003815
"2003-10-03 20:00:00",13.9200000763,0.337000012398,90.4000015259,9.32999992371,7.73000001907,3.29999995232,12.5699996948
"2003-10-03 21:00:00",13.7299995422,0.337999999523,91.8000030518,9.5,7.71000003815,3.09999990463,12.5399999619
"2003-10-03 22:00:00",13.5399999619,0.338999986649,91.0999984741,9.47999954224,7.69999980927,3.0,12.5200004578
"2003-10-03 23:00:00",13.5,0.340999990702,91.0,9.47999954224,7.69999980927,3.0,12.5
"2003-10-04 00:00:00",13.4099998474,0.342000007629,90.9000015259,9.47999954224,7.67999982834,3.09999990463,12.4899997711
"2003-10-04 01:00:00",13.3900003433,0.342999994755,90.5,9.43999958038,7.67999982834,3.0,12.470000267
"2003-10-04 02:00:00",13.3400001526,0.340999990702,88.0,9.18999958038,7.65999984741,3.09999990463,12.4600000381
"2003-10-04 03:00:00",13.220000267,0.342999994755,88.6999969482,9.28999996185,7.63999986649,2.90000009537,12.4399995804
"2003-10-04 04:00:00",13.0799999237,0.347999989986,88.6999969482,9.32999992371,7.61999988556,2.79999995232,12.4200000763
"2003-10-04 05:00:00",12.9799995422,0.352999985218,89.9000015259,9.47000026703,7.61000013351,2.70000004768,12.3999996185
"2003-10-04 06:00:00",12.9499998093,0.358000010252,89.6999969482,9.44999980927,7.61999988556,2.59999990463,12.3699998856
"2003-10-04 07:00:00",12.8599996567,0.361000001431,91.0999984741,9.60999965668,7.63000011444,2.70000004768,12.3400001526
"2003-10-04 08:00:00",12.75,0.361999988556,90.1999969482,9.53999996185,7.63000011444,2.70000004768,12.3000001907
"2003-10-04 09:00:00",12.7399997711,0.361000001431,92.5,9.78999996185,7.65000009537,2.40000009537,12.2899999619
"2003-10-04 10:00:00",13.1499996185,0.360000014305,97.1999969482,10.1999998093,7.67000007629,2.29999995232,12.8900003433
"2003-10-04 11:00:00",13.9799995422,0.360000014305,105.199996948,10.8299999237,7.69999980927,2.29999995232,13.3199996948
"2003-10-04 12:00:00",14.0799999237,0.354000002146,98.1999969482,10.0900001526,7.71999979019,2.79999995232,12.9099998474
"2003-10-04 13:00:00",14.9300003052,0.354000002146,100.5,10.1400003433,7.75,2.70000004768,13.2600002289
"2003-10-04 14:00:00",15.279999733,0.351000010967,99.4000015259,9.94999980927,7.75,2.79999995232,13.220000267
"2003-10-04 15:00:00",15.9099998474,0.349000006914,103.800003052,10.25,7.76999998093,2.70000004768,13.1800003052
"2003-10-04 16:00:00",16.0900001526,0.344000011683,102.599998474,10.0900001526,7.78000020981,2.70000004768,12.7299995422
"2003-10-04 17:00:00",16.1499996185,0.344999998808,98.6999969482,9.69999980927,7.78000020981,2.79999995232,12.6999998093
"2003-10-04 18:00:00",16.2099990845,0.349000006914,95.5,9.38000011444,7.75,2.70000004768,12.6400003433
"2003-10-04 19:00:00",16.1800003052,0.347999989986,92.9000015259,9.11999988556,7.73999977112,2.70000004768,12.6099996567
"2003-10-04 20:00:00",16.1499996185,0.342000007629,92.0999984741,9.05000019073,7.73000001907,2.90000009537,12.5799999237
"2003-10-04 21:00:00",16.1399993896,0.333999991417,88.8000030518,8.72999954224,7.71000003815,3.09999990463,12.5600004196
"2003-10-04 22:00:00",16.0599994659,0.32800000906,89.5999984741,8.81999969482,7.67999982834,2.90000009537,12.5399999619
"2003-10-04 23:00:00",15.9899997711,0.330000013113,85.6999969482,8.44999980927,7.65999984741,2.90000009537,12.5200004578
"2003-10-05 00:00:00",15.8800001144,0.337999999523,89.1999969482,8.81000041962,7.65000009537,2.79999995232,12.5100002289
"2003-10-05 01:00:00",15.7899999619,0.344000011683,88.1999969482,8.72999954224,7.63999986649,2.70000004768,12.4899997711
"2003-10-05 02:00:00",15.6899995804,0.352999985218,89.0,8.82999992371,7.63999986649,2.70000004768,12.4799995422
"2003-10-05 03:00:00",15.5600004196,0.368000000715,89.9000015259,8.94999980927,7.65000009537,2.79999995232,12.4600000381
"2003-10-05 04:00:00",15.3299999237,0.379000008106,88.8000030518,8.88000011444,7.65000009537,3.0,12.4399995804
"2003-10-05 05:00:00",15.1999998093,0.381999999285,90.0999984741,9.03999996185,7.65000009537,3.09999990463,12.4200000763
"2003-10-05 06:00:00",14.970000267,0.381000012159,88.5,8.92000007629,7.65999984741,3.09999990463,12.3999996185
"2003-10-05 07:00:00",14.8299999237,0.375999987125,89.3000030518,9.02999973297,7.65999984741,4.0,12.3699998856
"2003-10-05 08:00:00",14.6400003433,0.365999996662,88.5999984741,9.0,7.65999984741,4.19999980927,12.3400001526
"2003-10-05 09:00:00",14.6599998474,0.358000010252,91.1999969482,9.26000022888,7.65999984741,4.19999980927,12.3299999237
"2003-10-05 10:00:00",14.8699998856,0.358999997377,93.6999969482,9.46000003815,7.65000009537,4.40000009537,12.8000001907
"2003-10-05 11:00:00",15.470000267,0.351000010967,100.400001526,10.0200004578,7.67000007629,4.80000019073,13.2700004578
"2003-10-05 12:00:00",15.7600002289,0.351000010967,96.5999984741,9.56999969482,7.67999982834,4.19999980927,12.9399995804
"2003-10-05 13:00:00",16.6100006104,0.347999989986,105.300003052,10.25,7.73000001907,4.5,13.25
"2003-10-05 14:00:00",16.8199996948,0.333000004292,105.199996948,10.1999998093,7.75,7.09999990463,13.2299995422
"2003-10-05 15:00:00",17.1599998474,0.312000006437,100.900001526,9.72000026703,7.76999998093,4.19999980927,13.1999998093
"2003-10-05 16:00:00",17.1700000763,0.305000007153,96.1999969482,9.26000022888,7.73999977112,4.19999980927,12.8199996948
"2003-10-05 17:00:00",17.2299995422,0.301999986172,94.3000030518,9.06000041962,7.71999979019,4.0,12.6800003052
"2003-10-05 18:00:00",17.1800003052,0.300000011921,94.0,9.03999996185,7.69999980927,4.19999980927,12.6199998856
"2003-10-05 19:00:00",17.0400009155,0.298999994993,92.5,8.92000007629,7.67999982834,4.19999980927,12.5799999237
"2003-10-05 20:00:00",16.8099994659,0.300000011921,87.5,8.48999977112,7.67000007629,4.19999980927,12.5600004196
"2003-10-05 21:00:00",16.5,0.303000003099,89.1999969482,8.69999980927,7.63999986649,4.5,12.5399999619
"2003-10-05 22:00:00",16.2600002289,0.307999998331,89.1999969482,8.73999977112,7.63999986649,4.19999980927,12.5200004578
"2003-10-05 23:00:00",15.9600000381,0.317000001669,89.0,8.77999973297,7.63000011444,4.69999980927,12.5
"2003-10-06 00:00:00",15.8100004196,0.328999996185,89.1999969482,8.82999992371,7.61999988556,4.30000019073,12.4899997711
"2003-10-06 01:00:00",15.5600004196,0.337999999523,89.1999969482,8.88000011444,7.61999988556,3.79999995232,12.470000267
"2003-10-06 02:00:00",15.3400001526,0.340999990702,89.3000030518,8.93000030518,7.61000013351,3.59999990463,12.4499998093
"2003-10-06 03:00:00",15.1199998856,0.345999985933,88.0999984741,8.85000038147,7.59999990463,3.29999995232,12.4399995804
"2003-10-06 04:00:00",14.9899997711,0.352999985218,87.5999984741,8.81999969482,7.59000015259,2.79999995232,12.4200000763
"2003-10-06 05:00:00",14.7299995422,0.358999997377,88.6999969482,8.98999977112,7.59000015259,2.79999995232,12.4099998474
"2003-10-06 06:00:00",14.6199998856,0.354999989271,88.5999984741,9.0,7.61999988556,2.59999990463,12.3800001144
"2003-10-06 07:00:00",14.529999733,0.349000006914,88.5999984741,9.01000022888,7.63000011444,2.5,12.3599996567
"2003-10-06 08:00:00",14.4600000381,0.36700001359,90.3000030518,9.19999980927,7.63999986649,2.70000004768,12.3400001526
"2003-10-06 09:00:00",14.5100002289,0.375999987125,93.0,9.47000026703,7.65999984741,2.59999990463,12.3400001526
"2003-10-06 10:00:00",14.7100000381,0.375999987125,96.5999984741,9.80000019073,7.69000005722,2.70000004768,12.5500001907
"2003-10-06 11:00:00",15.0399999619,0.372000008821,97.9000015259,9.85999965668,7.71999979019,2.5,12.9300003052
"2003-10-06 12:00:00",15.5699996948,0.370999991894,105.699996948,10.5200004578,7.76000022888,2.40000009537,13.1300001144
"2003-10-06 13:00:00",16.1299991608,0.365999996662,108.5,10.6700000763,7.80999994278,2.70000004768,13.25
"2003-10-06 14:00:00",16.4099998474,0.351999998093,102.099998474,9.97999954224,7.82000017166,2.79999995232,13.2700004578
"2003-10-06 15:00:00",16.8799991608,0.349000006914,108.0,10.4600000381,7.84999990463,2.79999995232,12.970000267
"2003-10-06 16:00:00",17.0100002289,0.347000002861,101.300003052,9.77999973297,7.84000015259,2.79999995232,12.75
"2003-10-06 17:00:00",17.0900001526,0.344000011683,97.1999969482,9.36999988556,7.80999994278,2.70000004768,12.6400003433
"2003-10-06 18:00:00",17.1100006104,0.354000002146,94.6999969482,9.13000011444,7.76000022888,3.29999995232,12.6099996567
"2003-10-06 19:00:00",17.0499992371,0.363999992609,93.4000015259,9.01000022888,7.71999979019,4.0,12.5900001526
"2003-10-06 20:00:00",16.9400005341,0.363999992609,91.8000030518,8.86999988556,7.71000003815,5.09999990463,12.5699996948
"2003-10-06 21:00:00",16.7900009155,0.368000000715,90.0,8.72999954224,7.69999980927,6.90000009537,12.5500001907
"2003-10-06 22:00:00",16.6599998474,0.344000011683,88.4000015259,8.60000038147,7.69000005722,6.80000019073,12.5399999619
"2003-10-06 23:00:00",16.5100002289,0.333000004292,88.0999984741,8.60000038147,7.69000005722,7.40000009537,12.5
"2003-10-07 00:00:00",16.4500007629,0.333000004292,87.4000015259,8.53999996185,7.67000007629,6.90000009537,12.5
"2003-10-07 01:00:00",16.3500003815,0.326000005007,89.8000030518,8.78999996185,7.65999984741,5.90000009537,12.4799995422
"2003-10-07 02:00:00",16.2900009155,0.31099998951,87.6999969482,8.59000015259,7.65000009537,4.80000019073,12.4600000381
"2003-10-07 03:00:00",16.2700004578,0.293000012636,87.5,8.57999992371,7.63000011444,4.0,12.4499998093
"2003-10-07 04:00:00",16.1800003052,0.291000008583,86.5,8.5,7.59999990463,3.5,12.4200000763
"2003-10-07 05:00:00",16.1399993896,0.273999989033,86.5999984741,8.51000022888,7.59000015259,3.09999990463,12.4099998474
"2003-10-07 06:00:00",16.1000003815,0.303000003099,87.0999984741,8.56999969482,7.57999992371,2.90000009537,12.3699998856
"2003-10-07 07:00:00",16.0599994659,0.340000003576,87.8000030518,8.64999961853,7.57999992371,2.90000009537,12.3500003815
"2003-10-07 08:00:00",16.0400009155,0.333999991417,85.5999984741,8.43999958038,7.57000017166,2.5,12.3400001526
"2003-10-07 09:00:00",16.1000003815,0.331000000238,86.6999969482,8.53999996185,7.57000017166,2.40000009537,12.3599996567
"2003-10-07 10:00:00",16.2900009155,0.354000002146,87.5,8.57999992371,7.57999992371,2.29999995232,12.6099996567
"2003-10-07 11:00:00",16.7299995422,0.363000005484,105.199996948,10.220000267,7.65000009537,2.79999995232,13.1800003052
"2003-10-07 12:00:00",17.1200008392,0.360000014305,103.900001526,10.0100002289,7.69000005722,2.09999990463,13.1899995804
"2003-10-07 13:00:00",17.4500007629,0.351000010967,107.699996948,10.3000001907,7.73000001907,2.29999995232,13.0399999619
"2003-10-07 14:00:00",17.7299995422,0.340000003576,105.0,9.98999977112,7.76000022888,2.09999990463,12.8000001907
"2003-10-07 15:00:00",17.9899997711,0.330000013113,106.599998474,10.0799999237,7.76000022888,2.0,12.8500003815
"2003-10-07 16:00:00",18.1800003052,0.319999992847,107.800003052,10.1599998474,7.76000022888,1.89999997616,12.7399997711
"2003-10-07 17:00:00",18.2099990845,0.338999986649,104.099998474,9.80000019073,7.75,2.29999995232,12.6999998093
"2003-10-07 18:00:00",18.2199993134,0.340000003576,97.0,9.14000034332,7.76000022888,2.79999995232,12.6099996567
"2003-10-07 19:00:00",18.1299991608,0.342000007629,92.8000030518,8.76000022888,7.73000001907,2.59999990463,12.5900001526
"2003-10-07 20:00:00",18.0400009155,0.338999986649,88.8000030518,8.39000034332,7.69000005722,2.70000004768,12.5699996948
"2003-10-07 21:00:00",17.9400005341,0.333000004292,88.1999969482,8.35000038147,7.67999982834,2.59999990463,12.5600004196
"2003-10-07 22:00:00",17.8299999237,0.335000008345,87.0,8.26000022888,7.67000007629,3.0,12.5399999619
"2003-10-07 23:00:00",17.6599998474,0.342999994755,87.5,8.34000015259,7.65000009537,4.90000009537,12.5200004578
"2003-10-08 00:00:00",17.5499992371,0.342000007629,87.0,8.30000019073,7.63000011444,9.80000019073,12.5100002289
"2003-10-08 01:00:00",17.3899993896,0.337999999523,87.0,8.32999992371,7.63000011444,12.3000001907,12.5
"2003-10-08 02:00:00",17.2700004578,0.333999991417,86.8000030518,8.32999992371,7.61000013351,11.3000001907,12.4799995422
"2003-10-08 03:00:00",17.1200008392,0.335000008345,84.6999969482,8.15999984741,7.61000013351,8.60000038147,12.4600000381
"2003-10-08 04:00:00",16.9899997711,0.33599999547,85.5999984741,8.26000022888,7.61999988556,6.59999990463,12.4399995804
"2003-10-08 05:00:00",16.9200000763,0.33599999547,86.8000030518,8.39000034332,7.61999988556,5.09999990463,12.4300003052
"2003-10-08 06:00:00",16.8799991608,0.342999994755,84.9000015259,8.22000026703,7.61000013351,4.40000009537,12.4099998474
"2003-10-08 07:00:00",16.8700008392,0.356999993324,86.0,8.31999969482,7.59999990463,4.0,12.3900003433
"2003-10-08 08:00:00",16.8400001526,0.370999991894,85.0999984741,8.23999977112,7.59000015259,3.59999990463,12.3599996567
"2003-10-08 09:00:00",16.9200000763,0.377000004053,84.5,8.17000007629,7.57000017166,3.40000009537,12.3500003815
"2003-10-08 10:00:00",17.0499992371,0.372999995947,88.0,8.48999977112,7.57999992371,2.79999995232,12.3500003815
"2003-10-08 11:00:00",-6999.0,0.372999995947,88.0,8.48999977112,7.57999992371,2.79999995232,12.3900003433
"2003-10-08 12:00:00",-6999.0,0.372999995947,88.0,8.48999977112,7.57999992371,2.79999995232,12.4899997711
"2003-10-08 13:00:00",-6999.0,0.372999995947,88.0,8.48999977112,7.57999992371,2.79999995232,12.529999733
"2003-10-08 14:00:00",-6999.0,0.372999995947,88.0,8.48999977112,7.57999992371,2.79999995232,12.3999996185
"2003-10-08 15:00:00",-6999.0,0.372999995947,88.0,8.48999977112,7.57999992371,2.79999995232,12.6000003815
"2003-10-08 16:00:00",-6999.0,0.372999995947,88.0,8.48999977112,7.57999992371,2.79999995232,12.5100002289
"2003-10-08 17:00:00",-6999.0,0.372999995947,88.0,8.48999977112,7.57999992371,2.79999995232,12.3900003433
"2003-10-08 18:00:00",-6999.0,0.372999995947,88.0,8.48999977112,7.57999992371,2.79999995232,12.3699998856
"2003-10-08 19:00:00",-6999.0,0.372999995947,88.0,8.48999977112,7.57999992371,2.79999995232,12.3599996567
"2003-10-08 20:00:00",-6999.0,0.372999995947,88.0,8.48999977112,7.57999992371,2.79999995232,12.3500003815
"2003-10-08 21:00:00",-6999.0,0.372999995947,88.0,8.48999977112,7.57999992371,2.79999995232,12.3500003815
"2003-10-08 22:00:00",-6999.0,0.372999995947,88.0,8.48999977112,7.57999992371,2.79999995232,12.3400001526
"2003-10-08 23:00:00",-6999.0,0.372999995947,88.0,8.48999977112,7.57999992371,2.79999995232,12.3400001526
"2003-10-09 00:00:00",-6999.0,0.372999995947,88.0,8.48999977112,7.57999992371,2.79999995232,12.3400001526
"2003-10-09 01:00:00",-6999.0,0.372999995947,88.0,8.48999977112,7.57999992371,2.79999995232,12.3299999237
"2003-10-09 02:00:00",-6999.0,0.372999995947,88.0,8.48999977112,7.57999992371,2.79999995232,12.3199996948
"2003-10-09 03:00:00",-6999.0,0.372999995947,88.0,8.48999977112,7.57999992371,2.79999995232,12.3199996948
"2003-10-09 04:00:00",-6999.0,0.372999995947,88.0,8.48999977112,7.57999992371,2.79999995232,12.3199996948
"2003-10-09 05:00:00",-6999.0,0.372999995947,88.0,8.48999977112,7.57999992371,2.79999995232,12.3100004196
"2003-10-09 06:00:00",-6999.0,0.372999995947,88.0,8.48999977112,7.57999992371,2.79999995232,12.3100004196
"2003-10-09 07:00:00",-6999.0,0.372999995947,88.0,8.48999977112,7.57999992371,2.79999995232,12.3000001907
"2003-10-09 08:00:00",-6999.0,0.372999995947,88.0,8.48999977112,7.57999992371,2.79999995232,12.3000001907
"2003-10-09 09:00:00",-6999.0,0.372999995947,88.0,8.48999977112,7.57999992371,2.79999995232,12.3000001907
"2003-10-09 10:00:00",-6999.0,0.372999995947,88.0,8.48999977112,7.57999992371,2.79999995232,12.3000001907
"2003-10-09 11:00:00",18.9099998474,0.189999997616,83.1999969482,7.73000001907,7.0,12.8999996185,12.3900003433
"2003-10-09 12:00:00",19.0499992371,0.204999998212,85.4000015259,7.90999984741,7.17000007629,9.39999961853,12.8900003433
"2003-10-09 13:00:00",19.2600002289,0.218999996781,86.5999984741,7.98999977112,7.26000022888,7.0,12.8100004196